[TLELIST] Archives

 

[list_settings.list_name] Current TLEs

June 2nd 2021 PDT

HST 1 20580U 90037B 21152.59339934 .00000428 00000-0 14901-4 0 9993 2 20580 28.4686 170.0209 0002409 249.8648 252.7163 15.09650869508644 ISS (ZARYA) 1 25544U 98067A 21153.33610538 .00000648 00000-0 19959-4 0 9996 2 25544 51.6454 56.1809 0003452 55.5733 83.1214 15.48941137286297 CXO 1 25867U 99040B 21154.88501305 .00000455 00000-0 00000-0 0 9997 2 25867 55.4159 255.7995 8302647 226.3735 359.9405 0.37803999 10395 ____________________________________________________________________ These 2-Line ...Continue Reading

[list_settings.list_name] Current TLEs

June 1st 2021 PDT

HST 1 20580U 90037B 21151.80363367 .00000432 00000-0 15149-4 0 9993 2 20580 28.4687 175.2468 0002424 240.7203 281.1778 15.09650434508526 ISS (ZARYA) 1 25544U 98067A 21152.11066515 .00000451 00000-0 16375-4 0 9992 2 25544 51.6453 62.2423 0003364 52.3737 88.5313 15.48937685286109 CXO 1 25867U 99040B 21152.24085197 .00000524 00000-0 00000-0 0 9998 2 25867 55.4444 255.8671 8297553 226.3910 359.9441 0.37807064 10373 ____________________________________________________________________ These 2-Line ...Continue Reading

[list_settings.list_name] Current TLEs

May 31st 2021 PDT

HST 1 20580U 90037B 21151.18776539 .00000454 00000-0 16465-4 0 9999 2 20580 28.4687 179.3219 0002443 233.3263 174.8512 15.09650158508640 ISS (ZARYA) 1 25544U 98067A 21151.46971244 .00000619 00000-0 19447-4 0 9992 2 25544 51.6456 65.4128 0003332 51.6077 112.8776 15.48937272286008 CXO 1 25867U 99040B 21152.24085197 .00000524 00000-0 00000-0 0 9998 2 25867 55.4444 255.8671 8297553 226.3910 359.9441 0.37807064 10373 ____________________________________________________________________ These 2-Line ...Continue Reading

[list_settings.list_name] Current TLEs

May 30th 2021 PDT

HST 1 20580U 90037B 21149.82056888 .00000463 00000-0 17026-4 0 9999 2 20580 28.4688 188.3685 0002475 217.8059 305.2833 15.09649346508231 ISS (ZARYA) 1 25544U 98067A 21150.17525219 .00001216 00000-0 30289-4 0 9997 2 25544 51.6454 71.8132 0003443 45.7908 95.8066 15.48936547285805 CXO 1 25867U 99040B 21152.24085197 .00000524 00000-0 00000-0 0 9998 2 25867 55.4444 255.8671 8297553 226.3910 359.9441 0.37807064 10373 ____________________________________________________________________ These 2-Line ...Continue Reading

[list_settings.list_name] Current TLEs

May 29th 2021 PDT

HST 1 20580U 90037B 21148.82892572 .00000482 00000-0 18210-4 0 9993 2 20580 28.4689 194.9301 0002510 206.5984 316.4863 15.09648803508089 ISS (ZARYA) 1 25544U 98067A 21149.07106325 .00000442 00000-0 16218-4 0 9993 2 25544 51.6444 77.2731 0003280 43.2730 57.1193 15.48930226285635 CXO 1 25867U 99040B 21149.59749496 .00000554 00000-0 00000-0 0 9994 2 25867 55.5081 255.9676 8293350 226.3943 0.0359 0.37807039 10378 ____________________________________________________________________ These 2-Line ...Continue Reading

[list_settings.list_name] Current TLEs

May 28th 2021 PDT

HST 1 20580U 90037B 21147.56434740 .00000545 00000-0 22004-4 0 9998 2 20580 28.4690 203.2975 0002570 192.5334 284.2785 15.09648314507891 ISS (ZARYA) 1 25544U 98067A 21148.30433307 .00000175 00000-0 11358-4 0 9994 2 25544 51.6437 81.0656 0003267 41.6619 100.5035 15.48927328285513 CXO 1 25867U 99040B 21149.59749496 .00000554 00000-0 00000-0 0 9994 2 25867 55.5081 255.9676 8293350 226.3943 0.0359 0.37807039 10378 ____________________________________________________________________ These 2-Line ...Continue Reading

[list_settings.list_name] Current TLEs

May 27th 2021 PDT

HST 1 20580U 90037B 21146.64171260 .00000476 00000-0 17845-4 0 9991 2 20580 28.4690 209.4024 0002609 182.4663 310.1312 15.09647299507751 ISS (ZARYA) 1 25544U 98067A 21147.20911310 .00000674 00000-0 20446-4 0 9999 2 25544 51.6428 86.4815 0003280 38.6349 112.4099 15.48927771285345 CXO 1 25867U 99040B 21149.59523372 .00000554 00000-0 00000-0 0 9997 2 25867 55.5081 255.9677 8293353 226.3943 359.7278 0.37807024 10369 ____________________________________________________________________ These 2-Line ...Continue Reading

[list_settings.list_name] Current TLEs

May 26th 2021 PDT

HST 1 20580U 90037B 21146.22748500 .00000523 00000-0 20677-4 0 9992 2 20580 28.4690 212.1432 0002631 177.9646 218.9555 15.09647302507894 ISS (ZARYA) 1 25544U 98067A 21146.36913980 .00001085 00000-0 27924-4 0 9995 2 25544 51.6428 90.6360 0003215 35.8494 108.3067 15.48928009285215 CXO 1 25867U 99040B 21146.95371728 .00000576 00000-0 00000-0 0 9994 2 25867 55.5808 256.0654 8287362 226.4158 0.0595 0.37800582 10365 ____________________________________________________________________ These 2-Line ...Continue Reading

[list_settings.list_name] Current TLEs

May 25th 2021 PDT

HST 1 20580U 90037B 21144.92844425 .00000551 00000-0 22359-4 0 9990 2 20580 28.4691 220.7387 0002678 164.0941 358.8951 15.09646483507494 ISS (ZARYA) 1 25544U 98067A 21145.40166954 .00001214 00000-0 30271-4 0 9993 2 25544 51.6426 95.4218 0003210 31.9756 113.8776 15.48925795285061 CXO 1 25867U 99040B 21146.95371728 .00000576 00000-0 00000-0 0 9994 2 25867 55.5808 256.0654 8287362 226.4158 0.0595 0.37800582 10365 ____________________________________________________________________ These 2-Line ...Continue Reading

[list_settings.list_name] Current TLEs

May 24th 2021 PDT

HST 1 20580U 90037B 21143.93680124 .00000575 00000-0 23805-4 0 9997 2 20580 28.4692 227.3003 0002717 153.6863 9.3097 15.09645778507343 ISS (ZARYA) 1 25544U 98067A 21144.23167620 .00102477 00000-0 18465-2 0 9996 2 25544 51.6424 101.2130 0002848 30.0669 67.4570 15.48960510284886 CXO 1 25867U 99040B 21144.30864911 .00000689 00000-0 00000-0 0 9997 2 25867 55.6498 256.1702 8285594 226.4345 359.9014 0.37811191 10347 ____________________________________________________________________ These 2-Line ...Continue Reading
  • This mailing list is a public mailing list - anyone may join or leave, at any time.
  • This mailing list is announce-only.

International Space Station (ISS) / Hubble Space Telescope (HST) / Chandra X-Ray Observatory Orbital Data via EMAIL

Privacy Policy:

Private list